Regional Weather Roundup
Issued by NWS

Home | Current Version | Previous Version | Graphics & Text | Print | Product List | Glossary On
Versions: 1 2 3 4 5 6 7 8 9 10 11 12 13 14 15 16 17 18 19 20 21 22 23 24 25 26 27 28 29 30 31 32 33 34 35 36 37 38 39 40 41 42 43 44 45 46 47 48 49 50
000
ASUS43 KBIS 251759
RWRND

NORTH DAKOTA REGIONAL WEATHER ROUNDUP
NATIONAL WEATHER SERVICE BISMARCK ND
1200 PM CST THU DEC 25 2014

NOTE: "FAIR" INDICATES FEW OR NO CLOUDS BELOW 12,000 FEET WITH NO
SIGNIFICANT WEATHER AND/OR OBSTRUCTIONS TO VISIBILITY.


NDZ001>003-009>011-017-251900-
NORTHWEST NORTH DAKOTA

CITY           SKY/WX    TMP DP  RH WIND       PRES   REMARKS
WILLISTON      CLOUDY    27  21  78 NW15      29.86R WCI  15
6HR MIN TEMP:  25; 6HR MAX TEMP:  28;

MINOT          CLOUDY    27  22  81 W15       29.78R WCI  15
$$

NDZ018>021-031>035-040>046-251900-
SOUTHWEST NORTH DAKOTA

CITY           SKY/WX    TMP DP  RH WIND       PRES   REMARKS
BISMARCK       LGT SNOW  29  27  92 W5        29.80R FOG
6HR MIN TEMP:  24; 6HR MAX TEMP:  29; 6HR PCP: TRACE;

DICKINSON      CLOUDY    26  20  77 NW15      29.78S WCI  14
GARRISON         N/A     26  22  84 NW15      29.80R WCI  14
6HR MIN TEMP:  23; 6HR MAX TEMP:  28;

HETTINGER ARPT CLOUDY    27  22  81 N14       29.79R WCI  16
$$

NDZ004>008-012>016-024-026-027-054-251900-
NORTHEAST NORTH DAKOTA

CITY           SKY/WX    TMP DP  RH WIND       PRES   REMARKS
GRAND FORKS    CLOUDY    28  25  88 N12       29.75R WCI  18
GRND FRKS AFB  CLOUDY    28  28 100 NW9       29.75R WCI  20
DEVILS LAKE    CLOUDY    27  21  80 NW8       29.74S WCI  18
$$

NDZ022-023-025-028>030-036>039-047>053-251900-
SOUTHEAST NORTH DAKOTA

CITY           SKY/WX    TMP DP  RH WIND       PRES   REMARKS
FARGO          CLOUDY    29  24  82 NW7       29.75R
6HR MIN TEMP:  27; 6HR MAX TEMP:  29;

$$



USA.gov is the U.S. government's official web portal to all federal, state and local government web resources and services.